Chandler, OK

6:54 AM CDT on October 20, 2019 (GMT -0500)
Chandler Municipal

Weather History for KCQB - September, 2019

Change the Weather History Date:

Sunday, September 15, 2019

  Actual Average (KCUH) Record (KCUH)
Temperature  
Mean Temperature 80 °F -  
Max Temperature 92 °F 82 °F 104 °F (1956)
Min Temperature 69 °F 60 °F 43 °F (1993)
Cooling Degree Days 16    
Growing Degree Days 30 (Base 50)    
Moisture  
Dew Point 70 °F    
Average Humidity 72    
Maximum Humidity 90    
Minimum Humidity 45    
Precipitation  
Precipitation 0.00 in - - ()
Sea Level Pressure  
Sea Level Pressure 30.10 in    
Wind  
Wind Speed 5 mph ()    
Max Wind Speed 8 mph    
Max Gust Speed -    
Visibility 9.9 miles    
Events      
Averages and records for this station are not official NWS values.
T = Trace of Precipitation, MM = Missing Value Source: Averaged Metar Reports

Daily Weather History Graph

Daily Weather History Graph

Search for Another Location

Airport or City:

Astronomy

Sep. 15, 2019 Rise Set
Actual Time 7:09 AM CDT 7:34 PM CDT
Civil Twilight 6:44 AM CDT 8:00 PM CDT
Nautical Twilight 6:14 AM CDT 8:30 PM CDT
Astronomical Twilight 5:43 AM CDT 9:00 PM CDT
Moon 8:44 PM CDT (9/15) 8:20 AM CDT (9/15)
Length of Visible Light 13h 16m
Length of Day
12h 24m
Full, 98% of the Moon is Illuminated
Sep 15
Full
Sep 21
Last Quarter
Sep 28
New
Oct 5
First Quarter
Oct 13
Full

Hourly Weather History & Observations

Time (CDT) Temp. Heat Index Dew Point Humidity Pressure Visibility Wind Dir Wind Speed Gust Speed Precip Events Conditions
12:15 AM 72.9 °F - 69.3 °F 88% 30.13 in 10.0 mi East 5.8 mph - N/A   Clear
12:35 AM 73.0 °F - 68.7 °F 86% 30.13 in 10.0 mi ESE 5.8 mph - N/A   Clear
1:35 AM 72.9 °F - 68.7 °F 87% 30.13 in 10.0 mi SE 5.8 mph - N/A   Clear
1:55 AM 72.7 °F - 68.7 °F 87% 30.13 in 10.0 mi South 4.6 mph - N/A   Clear
2:35 AM 72.9 °F - 68.0 °F 85% 30.12 in 10.0 mi South 4.6 mph - N/A   Clear
2:55 AM 73.2 °F - 67.5 °F 82% 30.12 in 10.0 mi South 4.6 mph - N/A   Clear
3:15 AM 72.9 °F - 66.9 °F 82% 30.12 in 10.0 mi SSE 4.6 mph - N/A   Clear
3:35 AM 72.0 °F - 66.6 °F 83% 30.12 in 10.0 mi SSE 5.8 mph - N/A   Clear
3:55 AM 72.9 °F - 66.0 °F 79% 30.11 in 10.0 mi South 4.6 mph - N/A   Clear
4:15 AM 72.0 °F - 65.7 °F 80% 30.11 in 10.0 mi Calm Calm - N/A   Clear
4:35 AM 70.7 °F - 66.0 °F 85% 30.11 in 10.0 mi SSE 3.5 mph - N/A   Clear
4:55 AM 71.2 °F - 65.7 °F 82% 30.11 in 10.0 mi South 3.5 mph - N/A   Clear
5:15 AM 71.1 °F - 65.5 °F 82% 30.11 in 10.0 mi South 3.5 mph - N/A   Clear
5:35 AM 70.9 °F - 65.3 °F 82% 30.11 in 10.0 mi South 3.5 mph - N/A   Clear
5:55 AM 70.2 °F - 65.1 °F 84% 30.11 in 10.0 mi South 5.8 mph - N/A   Clear
6:15 AM 70.0 °F - 65.3 °F 85% 30.11 in 10.0 mi South 4.6 mph - N/A   Clear
6:55 AM 70.0 °F - 65.5 °F 86% 30.12 in 10.0 mi South 3.5 mph - N/A   Clear
7:15 AM 69.6 °F - 65.5 °F 87% 30.12 in 10.0 mi South 3.5 mph - N/A   Clear
7:35 AM 69.8 °F - 65.8 °F 87% 30.12 in 10.0 mi South 4.6 mph - N/A   Clear
7:55 AM 71.8 °F - 66.2 °F 83% 30.12 in 10.0 mi South 6.9 mph - N/A   Clear
8:15 AM 73.4 °F - 66.9 °F 80% 30.12 in 10.0 mi South 5.8 mph - N/A   Clear
8:35 AM 74.7 °F - 67.5 °F 78% 30.13 in 10.0 mi South 6.9 mph - N/A   Clear
8:55 AM 75.9 °F - 67.8 °F 76% 30.13 in 10.0 mi South 6.9 mph - N/A   Clear
9:15 AM 77.2 °F - 68.4 °F 74% 30.13 in 10.0 mi South 5.8 mph - N/A   Clear
9:35 AM 79.2 °F - 69.3 °F 72% 30.14 in 10.0 mi South 6.9 mph - N/A   Clear
9:55 AM 80.8 °F 84.1 °F 69.6 °F 69% 30.14 in 10.0 mi SSW 6.9 mph - N/A   Clear
10:15 AM 81.7 °F 85.1 °F 69.4 °F 66% 30.14 in 10.0 mi South 5.8 mph - N/A   Clear
10:35 AM 83.7 °F 88.0 °F 70.5 °F 64% 30.14 in 10.0 mi South 8.1 mph - N/A   Clear
10:55 AM 84.9 °F 89.7 °F 70.7 °F 62% 30.14 in 10.0 mi South 6.9 mph - N/A   Clear
11:15 AM 85.8 °F 90.8 °F 70.7 °F 60% 30.13 in 10.0 mi South 6.9 mph - N/A   Clear
11:35 AM 86.9 °F 92.5 °F 71.2 °F 59% 30.14 in 10.0 mi South 6.9 mph - N/A   Clear
11:55 AM 88.0 °F 94.2 °F 71.4 °F 58% 30.13 in 10.0 mi SW 8.1 mph - N/A   Clear
12:15 PM 88.5 °F 94.4 °F 70.9 °F 56% 30.13 in 10.0 mi South 8.1 mph - N/A   Clear
12:35 PM 89.2 °F 95.4 °F 71.2 °F 55% 30.13 in 10.0 mi South 6.9 mph - N/A   Clear
12:55 PM 90.1 °F 96.8 °F 71.6 °F 54% 30.12 in 10.0 mi SSW 6.9 mph - N/A   Clear
1:15 PM 90.3 °F 95.7 °F 70.2 °F 51% 30.12 in 10.0 mi WSW 6.9 mph - N/A   Clear
1:35 PM 90.7 °F 96.9 °F 71.1 °F 52% 30.11 in 10.0 mi SSW 4.6 mph - N/A   Clear
2:15 PM 91.0 °F 97.1 °F 70.3 °F 51% 30.10 in 10.0 mi WSW 6.9 mph - N/A   Clear
2:35 PM 91.4 °F 96.3 °F 69.4 °F 48% 30.09 in 10.0 mi South 8.1 mph - N/A   Clear
2:55 PM 91.8 °F 97.0 °F 69.3 °F 48% 30.08 in 10.0 mi SSW 4.6 mph - N/A   Clear
3:15 PM 92.1 °F 96.2 °F 68.2 °F 45% 30.08 in 10.0 mi SSW 8.1 mph - N/A   Clear
3:35 PM 91.8 °F 97.0 °F 69.4 °F 48% 30.07 in 10.0 mi South 5.8 mph - N/A   Clear
3:55 PM 91.6 °F 95.2 °F 67.6 °F 45% 30.06 in 10.0 mi South 4.6 mph - N/A   Clear
4:15 PM 89.6 °F 93.0 °F 67.6 °F 48% 30.06 in 10.0 mi SW 4.6 mph - N/A   Clear
4:35 PM 89.1 °F 93.7 °F 69.1 °F 52% 30.05 in 10.0 mi South 5.8 mph - N/A   Clear
4:55 PM 88.5 °F 93.5 °F 70.2 °F 54% 30.05 in 10.0 mi SSW 3.5 mph - N/A   Clear
5:15 PM 90.7 °F 95.0 °F 68.5 °F 48% 30.05 in 10.0 mi South 3.5 mph - N/A   Clear
5:35 PM 91.0 °F 94.7 °F 67.8 °F 46% 30.05 in 10.0 mi Calm Calm - N/A   Clear
5:55 PM 90.1 °F 95.3 °F 69.6 °F 51% 30.05 in 10.0 mi Calm Calm - N/A   Clear
6:55 PM 86.9 °F 93.7 °F 72.7 °F 62% 30.04 in 10.0 mi Calm Calm - N/A   Clear
7:15 PM 83.7 °F 92.0 °F 75.7 °F 77% 30.04 in 7.0 mi Calm Calm - N/A   Haze
7:35 PM 81.1 °F 87.4 °F 75.4 °F 83% 30.04 in 7.0 mi Calm Calm - N/A   Clear
7:55 PM 78.6 °F - 75.0 °F 89% 30.04 in 7.0 mi Calm Calm - N/A   Clear
8:15 PM 77.7 °F - 74.5 °F 90% 30.04 in 10.0 mi ESE 3.5 mph - N/A   Clear
8:35 PM 76.8 °F - 73.4 °F 89% 30.04 in 10.0 mi ESE 4.6 mph - N/A   Clear
8:55 PM 78.8 °F - 72.1 °F 80% 30.05 in 10.0 mi ESE 4.6 mph - N/A   Clear
9:15 PM 78.8 °F - 72.3 °F 80% 30.05 in 10.0 mi ESE 4.6 mph - N/A   Clear
9:35 PM 79.0 °F - 72.5 °F 80% 30.06 in 10.0 mi ESE 3.5 mph - N/A   Clear
9:55 PM 77.9 °F - 73.2 °F 85% 30.06 in 10.0 mi ESE 3.5 mph - N/A   Clear
10:15 PM 77.9 °F - 72.9 °F 84% 30.07 in 10.0 mi ESE 4.6 mph - N/A   Clear
10:35 PM 77.0 °F - 73.4 °F 89% 30.08 in 10.0 mi ESE 5.8 mph - N/A   Clear
10:55 PM 77.4 °F - 72.3 °F 84% 30.08 in 10.0 mi ESE 4.6 mph - N/A   Clear
11:15 PM 76.6 °F - 72.1 °F 86% 30.08 in 10.0 mi ESE 3.5 mph - N/A   Clear
11:35 PM 75.6 °F - 72.0 °F 89% 30.08 in 10.0 mi ESE 3.5 mph - N/A   Clear
11:55 PM 75.7 °F - 71.1 °F 85% 30.08 in 10.0 mi SE 3.5 mph - N/A   Clear